Location: Moscow
(55.7500°N, 37.5830°E)
Time: 20:32:51
(UTC+03:00)

Explorer 7 - Pass Details

Date: 05 December 2021
Orbit: 483 x 674 km, 50.3° (Epoch: 19 January)

Event Time Altitude Azimuth Distance (km) Brightness Sun altitude
Exits shadow 06:42:54 - 224° (SW) 2,499 9.9 -15.3°
Reaches altitude 10° 06:44:40 10° 214° (SW) 1,870 9.4 -15.0°
Maximum altitude 06:48:12 26° 158° (SSE) 1,117 8.8 -14.6°
Drops below altitude 10° 06:51:33 10° 102° (ESE) 1,779 10.8 -14.1°
Sets 06:53:58 0° 89° (E) 2,639 11.7 -13.8°
